TimeEST,TemperatureF,Dew PointF,Humidity,Sea Level PressureIn,VisibilityMPH,Wind Direction,Wind SpeedMPH,Gust SpeedMPH,PrecipitationIn,Events,Conditions,WindDirDegrees,DateUTC
12:15 AM,66.2,66.2,100,29.90,7.0,Calm,Calm,-,N/A,,Clear,0,2012-12-11 05:15:00
12:35 AM,68.0,66.2,94,29.90,10.0,Calm,Calm,-,N/A,,Clear,0,2012-12-11 05:35:00
12:55 AM,66.2,66.2,100,29.89,10.0,Calm,Calm,-,N/A,,Clear,0,2012-12-11 05:55:00
1:15 AM,64.4,64.4,100,29.88,7.0,Calm,Calm,-,N/A,,Clear,0,2012-12-11 06:15:00
1:35 AM,64.4,64.4,100,29.88,10.0,Calm,Calm,-,N/A,,Clear,0,2012-12-11 06:35:00
1:55 AM,64.4,64.4,100,29.88,7.0,Calm,Calm,-,N/A,,Clear,0,2012-12-11 06:55:00
2:15 AM,66.2,66.2,100,29.88,7.0,Calm,Calm,-,N/A,,Mostly Cloudy,0,2012-12-11 07:15:00
2:35 AM,68.0,68.0,100,29.89,10.0,Calm,Calm,-,N/A,,Overcast,0,2012-12-11 07:35:00
2:55 AM,68.0,68.0,100,29.89,10.0,Calm,Calm,-,N/A,,Scattered Clouds,0,2012-12-11 07:55:00
3:15 AM,66.2,66.2,100,29.89,5.0,SE,3.5,-,N/A,,Mostly Cloudy,130,2012-12-11 08:15:00
3:35 AM,64.4,64.4,100,29.90,0.5,Calm,Calm,-,N/A,Fog,Fog,0,2012-12-11 08:35:00
3:55 AM,64.4,64.4,100,29.90,1.5,Calm,Calm,-,N/A,,Overcast,0,2012-12-11 08:55:00
4:15 AM,64.4,64.4,100,29.90,0.8,Calm,Calm,-,N/A,,Overcast,0,2012-12-11 09:15:00
4:35 AM,64.4,64.4,100,29.90,0.5,Calm,Calm,-,N/A,Fog,Fog,0,2012-12-11 09:35:00
4:55 AM,64.4,64.4,100,29.91,0.2,Calm,Calm,-,N/A,Fog,Fog,0,2012-12-11 09:55:00
5:15 AM,64.4,64.4,100,29.91,0.2,Calm,Calm,-,N/A,Fog,Fog,0,2012-12-11 10:15:00
5:35 AM,64.4,64.4,100,29.91,0.5,Calm,Calm,-,N/A,Fog,Fog,0,2012-12-11 10:35:00
5:55 AM,64.4,64.4,100,29.91,0.2,Calm,Calm,-,N/A,Fog,Fog,0,2012-12-11 10:55:00
6:15 AM,62.6,62.6,100,29.91,0.2,Calm,Calm,-,N/A,Fog,Fog,0,2012-12-11 11:15:00
6:35 AM,62.6,62.6,100,29.91,0.2,Calm,Calm,-,N/A,Fog,Fog,0,2012-12-11 11:35:00
6:55 AM,62.6,62.6,100,29.93,0.8,Calm,Calm,-,N/A,,Overcast,0,2012-12-11 11:55:00
7:15 AM,62.6,62.6,100,29.93,0.2,Calm,Calm,-,N/A,Fog,Fog,0,2012-12-11 12:15:00
7:35 AM,62.6,62.6,100,29.95,0.2,Calm,Calm,-,N/A,Fog,Fog,0,2012-12-11 12:35:00
7:55 AM,62.6,62.6,100,29.96,0.2,Calm,Calm,-,N/A,Fog,Fog,0,2012-12-11 12:55:00
8:15 AM,64.4,64.4,100,29.96,0.2,Calm,Calm,-,N/A,Fog,Fog,0,2012-12-11 13:15:00
8:35 AM,64.4,64.4,100,29.96,0.2,Calm,Calm,-,N/A,Fog,Fog,0,2012-12-11 13:35:00
8:55 AM,64.4,64.4,100,29.97,0.2,Calm,Calm,-,N/A,Fog,Fog,0,2012-12-11 13:55:00
9:15 AM,66.2,66.2,100,29.97,0.5,Calm,Calm,-,N/A,Fog,Fog,0,2012-12-11 14:15:00
9:35 AM,66.2,66.2,100,29.98,2.0,Calm,Calm,-,N/A,,Overcast,0,2012-12-11 14:35:00
9:55 AM,68.0,68.0,100,29.99,7.0,Calm,Calm,-,N/A,,Overcast,0,2012-12-11 14:55:00
10:15 AM,68.0,68.0,100,29.99,7.0,Calm,Calm,-,N/A,,Overcast,0,2012-12-11 15:15:00
10:35 AM,68.0,68.0,100,30.00,10.0,Calm,Calm,-,N/A,,Overcast,0,2012-12-11 15:35:00
10:55 AM,69.8,69.8,100,30.01,10.0,West,3.5,-,N/A,,Overcast,260,2012-12-11 15:55:00
11:15 AM,69.8,69.8,100,30.00,10.0,Calm,Calm,-,N/A,,Overcast,0,2012-12-11 16:15:00
11:35 AM,71.6,69.8,94,30.00,10.0,WSW,3.5,-,N/A,,Overcast,240,2012-12-11 16:35:00
11:55 AM,73.4,69.8,88,29.99,10.0,Calm,Calm,-,N/A,,Overcast,0,2012-12-11 16:55:00
12:15 PM,73.4,69.8,88,29.99,10.0,WSW,4.6,-,N/A,,Overcast,240,2012-12-11 17:15:00
12:35 PM,73.4,69.8,88,29.98,10.0,WSW,5.8,-,N/A,,Overcast,250,2012-12-11 17:35:00
12:55 PM,75.2,69.8,83,29.98,10.0,WSW,5.8,-,N/A,,Overcast,240,2012-12-11 17:55:00
1:15 PM,77.0,69.8,78,29.97,10.0,WSW,4.6,-,N/A,,Mostly Cloudy,250,2012-12-11 18:15:00
1:35 PM,77.0,69.8,78,29.96,10.0,WSW,4.6,-,N/A,,Overcast,240,2012-12-11 18:35:00
1:55 PM,77.0,69.8,78,29.96,10.0,West,6.9,-,N/A,,Overcast,260,2012-12-11 18:55:00
2:15 PM,77.0,69.8,78,29.96,10.0,West,5.8,-,N/A,,Overcast,260,2012-12-11 19:15:00
2:35 PM,75.2,69.8,83,29.96,10.0,WSW,8.1,-,N/A,,Overcast,250,2012-12-11 19:35:00
2:55 PM,75.2,69.8,83,29.96,10.0,WSW,3.5,-,N/A,,Overcast,240,2012-12-11 19:55:00
3:15 PM,77.0,69.8,78,29.94,10.0,WSW,3.5,-,N/A,,Overcast,240,2012-12-11 20:15:00
3:35 PM,77.0,69.8,78,29.95,10.0,WSW,3.5,-,N/A,,Overcast,250,2012-12-11 20:35:00
3:55 PM,75.2,69.8,83,29.95,10.0,Calm,Calm,-,N/A,,Overcast,0,2012-12-11 20:55:00
4:15 PM,77.0,69.8,78,29.95,10.0,WNW,4.6,-,N/A,,Overcast,290,2012-12-11 21:15:00
4:35 PM,75.2,69.8,83,29.96,10.0,West,5.8,-,N/A,,Mostly Cloudy,270,2012-12-11 21:35:00
4:55 PM,73.4,69.8,88,29.96,10.0,SW,3.5,-,N/A,,Scattered Clouds,230,2012-12-11 21:55:00
5:15 PM,73.4,69.8,88,29.97,10.0,West,4.6,-,N/A,,Mostly Cloudy,260,2012-12-11 22:15:00
5:35 PM,71.6,71.6,100,29.97,10.0,WSW,4.6,-,N/A,,Overcast,250,2012-12-11 22:35:00
5:55 PM,71.6,71.6,100,29.98,10.0,Calm,Calm,-,N/A,,Overcast,0,2012-12-11 22:55:00
6:15 PM,71.6,69.8,94,29.97,10.0,Calm,Calm,-,N/A,,Mostly Cloudy,0,2012-12-11 23:15:00
6:35 PM,71.6,69.8,94,29.97,10.0,Calm,Calm,-,N/A,,Scattered Clouds,0,2012-12-11 23:35:00
6:55 PM,71.6,69.8,94,29.97,10.0,Calm,Calm,-,N/A,,Clear,0,2012-12-11 23:55:00
7:15 PM,69.8,69.8,100,29.97,10.0,Calm,Calm,-,N/A,,Clear,0,2012-12-12 00:15:00
7:35 PM,69.8,69.8,100,29.98,10.0,Calm,Calm,-,N/A,,Scattered Clouds,0,2012-12-12 00:35:00
7:55 PM,69.8,69.8,100,29.98,10.0,Calm,Calm,-,N/A,,Scattered Clouds,0,2012-12-12 00:55:00
8:15 PM,69.8,69.8,100,29.99,10.0,Calm,Calm,-,N/A,,Scattered Clouds,0,2012-12-12 01:15:00
8:35 PM,69.8,69.8,100,30.01,7.0,Calm,Calm,-,N/A,,Mostly Cloudy,0,2012-12-12 01:35:00
8:55 PM,69.8,69.8,100,30.02,7.0,Calm,Calm,-,N/A,,Mostly Cloudy,0,2012-12-12 01:55:00
9:15 PM,69.8,69.8,100,30.03,5.0,Calm,Calm,-,N/A,,Overcast,0,2012-12-12 02:15:00
9:35 PM,69.8,69.8,100,30.02,4.0,Calm,Calm,-,N/A,,Overcast,0,2012-12-12 02:35:00
9:55 PM,69.8,69.8,100,30.02,5.0,Calm,Calm,-,N/A,,Overcast,0,2012-12-12 02:55:00
10:15 PM,69.8,69.8,100,30.02,5.0,Calm,Calm,-,0.01,Rain,Light Rain,0,2012-12-12 03:15:00
10:35 PM,69.8,69.8,100,30.02,7.0,Calm,Calm,-,0.01,,Light Drizzle,0,2012-12-12 03:35:00
10:55 PM,69.8,69.8,100,30.03,5.0,Calm,Calm,-,0.01,,Overcast,0,2012-12-12 03:55:00
11:15 PM,69.8,69.8,100,30.03,5.0,Calm,Calm,-,N/A,,Overcast,0,2012-12-12 04:15:00
11:35 PM,69.8,69.8,100,30.02,5.0,Calm,Calm,-,N/A,,Overcast,0,2012-12-12 04:35:00
11:55 PM,69.8,69.8,100,30.04,4.0,Calm,Calm,-,N/A,,Overcast,0,2012-12-12 04:55:00